Tracking 19153 objects as of 26-Apr-2018
HD Live streaming from Space Station
objects crossing your sky now

NIMBUS 2 DEB

Track NIMBUS 2 DEB now!
10-day predictions


NORAD ID: 24956
Int'l Code: 1966-040C
Perigee: 1,027.5 km
Apogee: 1,101.7 km
Inclination: 100.5 °
Period: 106.3 minutes
Semi major axis: 7435 km
RCS: 0.027 m2 (small)
Launch date: May 15, 1966
Source: United States (US)
Launch site: AIR FORCE WESTERN TEST RANGE (AFWTR)

Note: This is SATELLITE DEBRIS
aabbcc
Your satellite tracking list
Your tracking list is empty




NASA's NSSDC Master Catalog

Two Line Element Set (TLE):
1 24956U 66040C   18116.87201455  .00000790  00000-0  12282-2 0  9994
2 24956 100.4661  75.9439 0049841 102.1300 313.1748 13.54031928536711
Source of the keplerian elements: AFSPC